Wind_Speed
91 91 92 92 92 92 92 91 91 91 90 91 91 90 90 90 92 92 90 91 93 96 97 96 95 96 97 97 98 99 99 98 97 98 97 96 96 95 93 91 90 90 90 89 88 87 86 86 85 84 82 80 78 75 72 69 69 69 68 67 65 63 60 57 55 54 54 52 50 47 44 44 41 37 36 35 32 29 25 24 24 19 14 17 18 20 30
97 97 97 97 97 96 96 95 95 94 94 94 94 93 93 93 94 94 92 92 93 95 96 96 95 96 96 97 98 100 101 101 100 100 99 99 99 98 96 95 93 92 92 91 91 90 90 89 87 86 85 83 82 80 77 75 74 73 71 70 69 66 64 62 59 58 57 55 53 49 46 46 44 41 41 38 36 35 31 30 29 22 17 18 18 20 30
103 103 103 102 101 100 100 99 98 98 97 97 96 96 95 95 96 96 95 93 94 97 97 96 95 96 96 97 99 100 102 103 103 102 102 102 101 100 99 98 97 96 95 95 94 93 93 92 90 88 87 86 85 83 82 80 79 78 75 73 71 68 67 67 64 61 59 57 55 52 52 52 48 45 44 41 40 39 36 34 31 25 23 22 19 21 30
108 108 107 106 105 104 103 102 102 101 101 100 100 99 98 97 97 99 98 96 96 98 99 97 97 97 97 98 99 100 102 103 103 103 104 104 104 102 101 101 101 100 99 98 97 96 96 95 93 91 90 89 87 86 85 84 82 82 80 77 75 72 70 70 69 65 61 59 58 58 59 57 51 49 49 47 45 44 42 38 30 26 26 24 22 26 30
110 110 109 109 108 107 107 106 105 105 105 105 104 103 102 101 100 101 101 99 98 100 101 100 99 99 98 99 100 101 102 102 102 103 104 105 104 104 104 104 103 102 100 100 100 99 98 98 96 95 93 91 90 89 89 87 86 85 84 82 79 76 74 74 73 68 64 62 61 63 63 60 56 55 54 51 50 50 46 39 32 32 31 26 27 31 31
109 109 108 107 107 106 105 104 104 104 105 105 106 106 105 105 105 104 105 104 102 102 102 102 102 102 100 100 101 101 102 102 102 102 103 103 104 105 107 106 105 103 101 101 102 102 101 101 100 99 97 95 94 92 92 91 89 88 87 86 83 80 78 78 76 72 68 65 65 67 68 65 62 61 59 57 56 54 49 42 39 39 35 31 33 36 32
105 104 103 102 101 100 98 97 97 97 97 98 99 101 102 103 105 106 106 108 108 107 106 105 105 105 104 103 103 103 103 102 102 103 103 104 105 106 107 107 106 105 104 102 103 103 103 104 103 102 101 99 97 96 95 94 92 92 91 89 87 84 82 81 79 75 72 70 69 70 71 69 67 65 63 61 60 57 52 48 46 44 40 39 40 38 34
97 95 94 92 91 89 88 87 87 87 87 88 88 90 92 94 97 99 102 105 108 109 109 110 110 109 108 106 106 105 105 103 103 104 105 105 105 105 106 107 106 106 106 104 104 104 104 105 105 104 104 103 101 100 99 98 96 96 95 93 90 87 85 85 83 79 76 75 74 74 75 74 71 68 65 63 61 58 55 52 50 47 45 45 44 40 38
87 85 83 82 80 78 77 75 75 75 75 76 76 77 80 82 85 88 92 96 100 104 108 110 112 113 113 111 110 109 107 105 104 105 106 106 106 106 106 107 107 107 107 106 106 105 105 104 104 104 105 105 105 104 103 102 100 99 98 96 93 90 89 88 86 83 80 80 80 79 78 77 75 70 66 63 61 59 56 56 55 52 50 49 46 41 40
79 77 75 73 71 69 68 66 66 65 65 65 66 67 69 71 73 75 79 84 89 94 99 103 107 112 114 115 114 113 112 109 108 107 107 107 107 107 107 107 107 107 107 107 107 105 104 104 104 105 106 106 107 107 106 105 103 102 101 99 96 93 92 91 90 86 83 84 85 83 81 82 77 69 64 63 63 62 60 60 59 56 55 53 48 43 43
72 70 68 66 64 63 61 60 58 58 58 58 58 59 60 62 64 65 69 73 77 81 87 93 98 104 109 112 115 116 116 114 112 111 110 109 110 110 109 108 107 107 108 108 107 105 104 105 106 106 106 106 107 107 107 107 105 104 103 102 99 96 95 95 94 89 86 88 89 86 85 83 75 68 69 70 68 65 65 64 62 60 58 55 51 49 49
65 63 61 59 58 56 54 53 52 51 51 51 51 52 54 55 57 59 61 64 67 70 75 81 86 93 98 104 109 113 116 117 117 116 115 114 114 113 111 109 108 108 108 108 107 106 106 106 107 107 107 106 107 108 108 107 106 106 105 104 101 99 98 98 97 93 89 90 92 90 87 80 73 73 77 75 72 72 73 70 66 63 60 56 54 53 53
59 57 56 54 53 51 49 48 46 45 45 44 44 46 47 48 51 53 55 58 59 61 65 70 74 80 86 92 98 105 110 114 117 119 119 119 118 117 115 113 111 109 109 109 108 107 106 106 107 107 107 107 107 108 109 108 107 107 106 105 104 102 101 101 100 96 92 93 94 92 86 79 77 79 80 78 78 79 77 72 68 65 61 59 57 56 55
56 54 53 52 50 49 47 45 44 42 41 40 40 40 40 42 44 47 50 52 53 55 58 61 65 70 75 80 87 93 100 106 111 115 119 121 121 120 119 117 115 113 111 110 109 108 107 107 107 107 107 107 108 108 108 108 108 108 107 106 105 105 104 104 102 98 95 94 95 92 85 81 81 81 81 81 82 81 78 74 70 67 64 62 60 58 58
54 52 51 49 48 47 45 43 42 41 39 39 38 37 37 38 39 40 43 45 47 49 52 56 59 62 66 70 75 81 88 94 101 106 112 116 120 121 121 120 119 117 115 113 112 111 110 108 108 107 107 107 108 107 108 110 110 109 108 107 107 108 108 106 103 99 97 96 95 91 87 84 83 82 81 81 81 80 80 78 74 71 67 64 62 61 61
51 49 48 46 45 44 42 40 39 38 37 36 35 34 35 35 35 36 37 39 40 43 47 51 54 56 59 63 67 72 77 82 89 95 101 107 112 117 119 119 120 120 119 117 115 114 112 111 109 108 108 107 107 107 109 110 111 110 109 109 110 111 111 109 105 102 99 97 94 91 89 86 84 83 82 81 80 81 82 82 78 73 69 66 64 64 63
47 45 44 42 41 40 38 36 34 33 32 31 31 31 32 32 32 32 33 34 36 39 42 45 48 51 54 57 60 64 68 73 78 84 90 95 101 107 111 115 117 118 118 119 118 117 116 114 112 110 109 109 108 108 109 111 111 111 111 111 112 114 113 111 107 104 101 97 94 93 91 87 85 84 83 82 81 82 84 84 79 73 70 69 68 67 66
44 43 41 40 38 36 35 33 31 29 28 27 26 27 28 28 28 28 29 30 33 35 37 39 42 45 48 51 54 57 60 65 69 74 79 84 89 95 101 105 108 110 112 115 117 117 117 116 115 114 112 111 111 110 110 111 111 111 112 113 114 115 114 112 109 105 102 99 96 94 92 89 87 86 84 83 83 84 85 84 78 75 74 74 72 71 70
43 42 40 39 37 35 33 31 29 28 26 25 24 23 23 23 23 24 25 27 29 29 30 33 36 38 42 45 48 52 55 58 62 65 69 73 78 84 89 93 96 99 102 106 110 113 115 116 116 116 116 116 114 113 112 112 113 113 113 115 117 117 116 114 111 108 104 100 97 96 94 91 90 89 87 85 85 86 86 84 80 79 79 77 76 75 74
43 41 40 38 37 35 33 31 29 28 26 24 23 21 20 19 19 20 21 22 23 24 26 28 31 34 36 39 43 46 49 52 55 58 61 64 68 73 78 81 83 87 91 95 99 104 108 112 113 115 117 118 118 116 115 115 116 116 116 118 119 119 117 116 113 110 106 103 100 97 95 92 91 91 90 88 87 88 88 85 83 82 81 80 79 77 77
44 42 40 38 37 35 34 32 30 28 26 24 22 20 19 18 17 17 17 18 19 20 22 24 27 29 32 34 37 41 43 46 50 53 55 56 59 64 68 70 72 76 80 83 88 92 97 102 105 108 112 116 118 119 118 118 119 119 119 120 121 121 120 118 115 111 108 106 102 98 95 93 93 93 91 89 88 89 89 87 85 83 82 83 83 82 80
44 41 39 37 35 34 33 31 30 28 26 24 22 20 18 16 15 15 15 15 16 17 18 20 23 25 27 30 33 36 38 42 45 47 49 50 53 57 60 61 63 67 69 73 77 81 85 90 94 98 103 108 112 116 118 120 122 123 122 122 123 122 120 118 115 113 110 107 104 101 97 94 93 94 93 91 90 89 89 88 86 84 84 84 85 86 85
43 40 38 35 33 32 30 29 28 27 25 23 21 19 17 16 14 13 13 12 13 14 15 17 19 21 23 25 28 31 34 37 39 41 42 44 47 50 52 54 57 59 61 64 67 70 75 79 83 87 92 96 101 107 112 117 122 124 125 125 124 123 120 118 116 115 113 110 108 105 100 94 94 96 95 92 89 88 88 89 88 87 87 87 89 89 89
41 39 36 34 32 30 28 27 26 25 23 22 20 18 17 15 13 12 11 10 10 10 11 13 15 16 19 21 23 26 29 31 33 35 37 40 43 45 47 48 51 52 53 56 59 61 65 69 72 77 82 85 90 95 102 109 116 122 126 127 127 125 122 119 119 117 115 113 111 107 102 97 95 96 94 89 84 80 80 82 82 81 80 81 84 88 91
39 37 35 33 31 29 27 26 25 24 22 20 18 17 15 14 13 11 10 8 7 7 8 9 11 13 15 17 19 21 23 25 27 29 32 35 37 40 42 43 45 46 48 49 52 54 58 61 64 68 72 76 80 86 91 98 105 112 119 123 125 125 123 122 122 120 118 117 113 110 105 97 89 87 85 82 77 70 67 70 69 65 63 62 63 69 76
37 35 34 32 30 28 27 26 25 24 22 20 18 17 15 13 12 10 9 7 6 4 4 5 7 8 11 12 15 17 18 20 22 24 26 29 31 34 36 38 40 42 43 45 47 50 52 55 57 61 65 68 72 77 82 87 93 100 107 112 116 118 120 123 124 122 121 120 116 115 108 95 86 84 79 75 72 68 68 72 68 58 55 55 56 58 60
36 34 33 32 31 29 27 26 25 24 23 21 19 17 16 14 12 10 9 7 6 4 2 2 3 5 7 9 11 13 15 18 19 21 23 25 27 30 32 34 36 38 39 42 44 45 47 49 51 55 58 61 65 69 73 78 84 90 95 100 105 109 113 118 121 121 122 121 119 118 106 88 84 90 88 81 78 73 72 79 80 71 63 59 58 60 61
35 34 33 32 31 30 29 28 27 26 24 23 21 19 17 16 14 12 10 9 7 6 4 2 1 1 2 4 7 9 12 14 16 18 20 22 24 27 28 30 32 34 36 38 40 41 42 44 46 50 53 55 59 63 66 71 77 81 85 91 96 99 102 108 113 116 118 118 118 118 105 82 74 80 84 82 82 78 74 79 84 81 77 73 66 63 66
34 33 33 32 32 32 31 29 28 27 25 24 23 21 19 18 16 15 13 11 10 9 7 6 5 3 3 2 3 5 7 10 12 14 16 18 20 22 25 26 28 31 33 35 36 37 39 41 44 47 49 51 54 58 62 66 68 71 76 83 88 91 95 100 105 108 111 113 114 115 111 92 75 72 76 75 72 71 71 74 75 72 72 75 74 68 67
33 33 32 32 32 32 32 31 30 28 26 25 24 23 22 21 19 18 16 15 13 12 10 10 9 7 6 5 4 4 6 8 10 11 13 15 16 18 21 23 25 28 30 31 33 35 36 39 41 44 45 47 50 53 55 57 59 64 70 76 81 85 89 93 97 100 103 106 108 109 112 104 87 78 81 80 73 69 67 66 65 63 64 70 74 71 66
32 32 31 31 32 33 33 33 31 29 27 26 26 25 24 23 22 21 20 18 17 15 14 13 13 11 10 8 7 6 6 7 8 10 11 13 14 16 18 20 23 25 26 28 30 32 34 37 39 41 42 44 46 47 50 52 55 60 65 69 74 79 83 86 91 94 95 98 102 104 106 103 91 82 83 85 82 78 74 69 65 62 60 63 68 68 66
31 30 30 30 32 33 33 34 32 30 28 26 26 26 25 24 24 24 23 22 21 20 19 18 17 15 14 12 10 8 7 7 8 9 10 12 13 15 17 18 21 23 24 26 28 30 32 35 37 38 40 41 42 44 46 49 52 56 59 63 67 72 76 80 85 88 89 92 98 101 99 93 84 80 81 85 87 84 80 79 76 69 61 59 60 62 65
30 29 29 29 31 32 33 33 32 30 27 26 25 26 25 25 26 26 25 25 26 25 23 22 20 19 17 15 14 12 10 10 9 9 10 11 12 14 15 17 19 20 22 23 26 28 30 32 33 35 36 37 38 40 42 45 49 53 55 58 60 62 67 73 78 82 85 88 94 99 98 89 82 80 79 82 86 85 80 81 81 77 70 65 62 65 71
28 28 27 28 30 31 32 33 31 29 27 26 25 26 27 28 28 28 28 28 29 29 27 25 24 23 21 19 17 15 14 13 12 11 11 12 12 12 14 16 17 18 19 21 23 26 27 29 30 31 31 33 35 38 41 43 46 49 50 52 55 55 59 66 72 76 81 86 91 97 97 88 82 82 82 80 81 81 80 81 83 83 81 77 73 75 79
26 25 25 26 28 29 31 31 29 27 26 26 25 26 27 28 29 29 30 30 31 31 30 28 28 27 25 24 22 20 19 18 16 15 14 14 13 13 14 15 16 17 17 18 20 22 23 26 28 29 31 33 35 38 40 41 43 44 45 46 49 52 56 62 66 68 74 82 88 95 96 88 83 85 87 84 82 82 82 83 85 86 86 85 82 80 79
24 23 23 24 26 28 29 29 27 25 25 26 26 27 28 29 30 30 31 31 32 32 32 32 31 30 29 28 27 25 24 23 21 20 18 17 16 15 14 14 15 16 16 16 17 18 19 21 24 26 28 30 32 34 36 38 39 41 42 44 47 50 52 54 57 60 66 75 84 91 95 91 87 90 92 90 86 83 81 82 86 88 87 87 86 84 82
22 21 21 22 24 26 28 28 27 25 25 26 27 28 29 30 31 32 32 33 34 34 35 35 35 34 33 32 31 29 28 27 25 23 22 21 19 18 17 16 16 16 16 17 16 16 16 17 20 22 24 26 28 29 31 33 35 37 40 43 45 46 47 50 56 61 65 72 80 88 94 96 92 92 96 97 92 83 78 77 80 83 84 85 86 85 83
20 18 19 22 24 25 26 26 26 26 25 26 28 29 30 31 32 33 34 35 35 35 36 36 36 36 35 34 33 31 31 30 28 26 25 25 24 23 21 20 20 19 18 19 19 18 18 17 17 19 21 24 26 28 29 32 34 36 39 41 43 45 49 53 59 63 67 73 79 85 94 100 98 93 95 99 96 87 80 76 74 75 79 82 85 85 82
18 18 19 22 23 23 23 25 26 26 25 26 28 30 31 32 33 34 35 35 35 36 36 37 37 37 37 37 35 33 33 33 32 30 29 29 28 27 27 25 25 24 23 22 22 22 22 22 20 20 22 23 25 28 29 31 32 34 37 38 40 44 49 54 58 62 67 74 78 82 91 100 101 96 93 95 93 86 80 74 67 65 67 70 72 73 70
17 18 19 20 20 21 22 23 25 25 25 24 26 29 30 31 31 31 33 35 36 36 37 38 38 38 38 37 37 36 35 35 35 34 34 33 31 31 31 30 29 29 29 28 27 27 27 26 25 24 24 25 26 27 28 29 30 32 33 34 35 38 42 47 52 58 64 71 76 81 87 94 97 95 94 93 89 82 76 68 59 56 59 61 60 60 59
17 18 17 17 18 19 20 22 24 25 24 24 25 27 28 28 28 29 32 35 36 37 38 38 38 38 37 37 37 37 37 37 37 37 37 37 36 36 35 34 33 34 34 33 32 32 32 32 30 28 27 27 26 26 26 27 28 28 28 28 29 31 35 40 44 51 59 67 74 80 86 90 93 94 95 93 86 79 74 67 57 53 56 59 59 61 61
17 15 13 15 17 18 20 22 24 24 23 22 23 24 24 24 26 28 30 33 36 38 38 37 37 37 37 36 36 37 38 38 39 39 40 40 40 41 41 39 39 39 39 37 37 38 37 37 35 33 32 30 29 28 27 27 26 26 27 26 26 27 29 32 37 44 53 61 68 78 86 89 89 90 91 91 86 80 77 70 57 47 47 52 57 60 61
15 11 10 13 17 19 21 22 22 21 20 20 20 20 21 22 24 26 28 31 35 37 38 37 36 36 36 35 34 35 37 38 39 40 41 42 43 45 45 45 44 44 44 43 43 43 43 42 40 39 37 36 34 33 33 31 28 26 25 24 24 23 24 25 30 37 47 56 65 75 83 86 86 85 86 87 84 78 73 66 56 45 42 46 52 56 59
12 8 8 13 18 20 21 20 19 18 18 17 18 18 19 20 21 23 26 31 35 37 37 37 36 35 35 34 34 34 35 38 39 39 40 42 44 45 46 47 47 47 47 48 48 48 47 46 46 45 42 40 37 36 36 35 32 28 25 23 23 22 22 23 27 32 41 54 66 73 75 79 82 81 76 74 72 65 58 55 54 50 46 47 52 56 57
9 7 9 15 18 19 19 17 15 15 16 15 15 16 17 18 19 21 25 31 36 37 37 37 36 35 34 33 32 32 34 36 37 37 38 40 42 43 45 47 48 48 48 49 48 47 46 46 45 43 40 37 34 33 33 32 31 28 26 25 23 22 21 23 26 29 36 49 63 72 74 75 75 70 63 60 59 55 51 52 56 55 50 48 49 51 52
6 6 11 16 17 17 16 15 13 12 13 13 13 14 15 16 18 20 25 30 35 36 36 35 34 34 34 31 29 30 33 34 34 35 36 36 37 40 43 43 43 44 45 46 45 43 43 43 42 40 38 35 32 31 32 32 31 30 29 27 24 21 20 20 22 26 31 39 52 66 74 75 71 64 59 56 55 53 52 54 56 55 51 45 43 46 49
5 6 12 16 15 14 15 14 12 10 10 11 13 13 14 14 15 18 21 24 28 31 33 34 33 33 33 30 28 28 29 30 31 33 33 31 33 36 37 35 35 38 40 42 43 42 41 40 40 38 37 35 31 29 31 32 32 31 32 30 28 25 23 21 21 24 28 32 39 51 62 66 63 58 55 53 51 51 52 51 50 49 47 44 44 47 50
6 8 12 15 14 13 14 14 12 9 9 10 11 12 13 13 13 14 15 16 17 22 28 32 32 31 31 29 28 27 26 26 27 29 30 30 30 31 29 29 31 34 36 38 40 41 41 39 37 35 34 32 30 28 29 30 29 29 31 33 32 30 29 27 26 28 31 34 37 41 45 47 48 48 47 46 45 47 48 47 46 45 46 47 49 51 51
9 10 13 13 12 12 13 14 12 9 9 10 10 11 12 12 12 12 11 11 12 16 22 27 29 28 27 27 26 24 23 23 24 26 28 29 28 26 25 26 28 31 34 35 37 38 38 37 36 33 31 30 30 29 28 28 28 28 30 33 35 34 33 33 32 33 35 37 37 37 37 38 41 43 43 43 44 45 46 47 47 47 49 51 52 52 51
13 12 12 12 11 10 11 12 11 9 8 9 10 10 11 12 11 10 10 10 11 14 18 21 24 25 25 25 23 21 21 20 21 22 24 25 25 25 24 24 24 28 31 34 35 36 35 35 35 34 32 31 32 32 31 30 29 29 31 35 36 36 35 36 36 35 35 35 35 35 38 40 41 43 45 46 47 47 49 50 50 50 52 54 54 51 50
15 13 11 9 11 11 12 12 12 11 9 9 9 10 10 11 11 10 9 9 9 11 14 16 19 21 23 22 21 20 20 20 20 21 21 20 22 24 25 22 22 25 29 31 31 32 32 32 32 33 33 33 33 34 34 33 33 32 34 36 37 37 38 40 41 40 39 39 38 40 42 43 43 45 47 48 48 49 50 52 52 52 54 56 56 53 50
17 15 10 6 7 10 12 13 13 13 11 10 9 9 9 9 10 10 9 8 8 10 11 12 13 16 19 20 20 20 20 19 21 21 20 18 19 23 25 24 23 24 27 28 27 25 26 27 28 29 31 33 34 34 35 35 35 36 36 37 38 39 41 44 46 47 46 46 45 46 47 48 49 51 53 52 52 51 51 51 53 55 56 57 57 56 53
Wind_Direction
281 280 278 276 274 273 271 269 268 266 265 263 262 261 260 258 258 257 256 255 254 253 253 252 251 249 248 247 246 246 245 244 244 244 244 243 243 243 242 242 242 243 244 245 245 243 241 241 241 242 243 244 245 244 243 242 243 244 245 246 246 246 245 244 245 247 248 249 250 250 251 253 256 259 261 263 267 268 267 264 260 254 253 261 262 262 261
283 281 279 277 275 274 272 271 269 268 266 265 263 262 261 260 259 258 257 255 255 254 253 252 252 250 249 247 246 245 245 244 244 244 243 243 243 242 242 241 241 242 243 244 245 245 244 242 241 241 242 243 244 244 244 243 243 243 243 245 245 245 246 245 244 245 247 249 250 251 253 255 256 257 258 260 261 261 260 260 259 256 256 260 261 262 265
284 282 281 279 277 275 274 272 271 270 268 267 265 263 262 261 260 259 258 256 255 255 254 253 252 251 249 248 247 245 245 244 244 244 243 243 242 242 241 241 240 240 240 242 243 244 245 244 243 242 242 242 243 244 244 244 243 244 243 243 245 245 246 246 245 245 246 248 249 250 251 251 250 250 252 253 254 254 254 254 255 254 253 256 257 254 257
285 283 282 281 279 277 276 274 273 271 270 268 266 265 263 262 260 260 259 257 255 255 254 253 252 251 250 249 247 246 245 244 244 243 243 243 243 242 242 241 240 239 239 240 241 242 243 244 244 243 243 243 243 244 245 244 244 245 244 244 244 244 245 247 246 245 245 246 248 249 249 249 248 248 248 248 248 249 249 250 254 255 252 253 255 253 254
286 285 284 282 281 279 277 276 274 272 270 269 267 265 264 262 260 259 259 258 256 255 254 254 253 252 250 249 248 247 246 245 244 244 243 243 243 243 242 241 241 239 238 238 239 240 241 243 243 243 243 243 243 244 244 245 245 245 245 245 244 244 244 246 246 246 245 246 247 249 250 250 250 249 250 250 250 250 250 253 254 253 253 255 254 254 255
288 287 285 284 282 281 279 277 275 273 271 269 267 265 264 262 260 258 258 257 256 254 254 253 252 252 251 250 248 247 246 246 245 244 244 243 243 243 242 242 241 241 239 238 238 239 239 241 242 242 242 242 243 243 244 244 244 245 245 245 245 244 244 246 246 246 246 246 246 248 249 249 249 249 249 250 251 252 253 254 253 253 255 254 250 252 257
290 289 287 286 284 283 281 279 277 275 273 270 268 266 264 262 260 258 256 255 254 253 253 252 252 251 250 249 249 248 247 246 245 245 244 243 243 242 242 242 241 241 240 239 238 238 238 239 240 241 241 241 242 242 242 243 243 244 244 244 244 244 244 245 246 246 247 246 246 247 249 248 248 248 249 250 251 253 254 255 254 254 254 251 249 254 261
293 291 290 288 286 285 283 281 279 277 274 272 270 267 265 263 260 258 256 254 253 252 251 250 250 250 249 249 248 248 247 246 246 245 244 244 243 242 242 242 241 241 240 239 239 238 238 238 239 240 240 241 241 241 241 242 242 243 243 243 243 244 244 245 245 246 246 247 246 246 248 248 248 248 249 250 252 253 255 256 255 255 255 254 254 257 261
296 294 293 291 290 288 286 284 281 279 276 274 271 269 266 264 261 258 256 254 252 251 250 248 248 248 248 248 247 247 247 246 246 245 244 244 243 243 242 241 241 241 240 240 239 238 238 238 239 239 240 240 241 241 241 241 241 242 243 243 243 243 244 244 245 245 246 247 247 246 247 249 249 248 249 252 254 255 256 257 256 255 255 255 255 257 257
299 298 296 295 293 291 289 287 285 282 279 276 274 270 267 265 262 259 256 254 251 250 249 248 246 246 245 246 246 246 246 246 245 245 244 244 244 243 242 241 241 240 240 240 239 238 238 238 239 239 239 240 241 241 241 241 241 241 242 243 243 243 243 244 244 244 244 246 247 247 248 249 249 250 252 253 254 255 255 255 255 255 255 254 255 255 251
302 300 299 297 295 293 291 289 286 284 281 278 275 272 269 266 263 260 257 254 251 249 248 247 245 245 244 244 244 244 245 245 244 244 244 244 244 243 242 241 241 240 240 240 239 238 238 238 238 239 239 239 240 241 241 241 241 241 242 242 242 242 242 243 244 243 243 245 247 247 247 249 252 253 253 252 252 253 252 252 252 252 253 253 253 253 252
304 302 301 299 297 295 294 291 288 285 282 278 275 272 269 266 264 261 258 255 252 250 248 246 245 244 243 243 242 242 242 243 243 243 243 243 243 243 243 242 241 240 240 240 239 238 238 237 237 238 238 239 240 241 241 241 241 242 242 242 242 242 241 242 243 242 241 243 245 246 247 249 251 251 251 252 251 251 250 249 249 250 253 254 254 255 256
308 307 306 304 302 300 298 296 293 289 285 281 277 273 269 266 263 260 258 256 254 251 249 247 245 244 243 242 241 241 241 241 241 241 242 242 242 242 242 242 241 240 239 239 239 238 238 237 237 237 238 238 239 240 241 242 242 242 242 242 242 242 242 242 242 241 240 241 244 245 246 247 247 248 250 252 252 251 251 252 252 253 255 256 256 256 257
313 312 310 309 307 305 303 301 298 295 291 287 282 277 273 268 264 260 258 256 254 252 250 248 246 244 243 241 240 240 240 240 240 240 240 241 241 242 242 241 241 240 240 239 239 239 238 237 237 237 237 237 238 239 241 241 242 242 243 243 243 243 242 242 242 241 241 241 243 244 244 244 244 246 248 250 252 254 255 256 256 256 255 255 255 255 255
317 315 313 311 309 308 306 304 302 299 296 292 288 283 279 274 268 264 260 257 254 252 249 247 245 244 242 241 240 239 239 239 239 239 239 239 240 241 241 241 241 240 240 239 239 238 238 237 237 237 236 237 237 238 239 241 241 242 242 243 243 243 243 243 242 242 241 242 243 243 243 243 243 245 247 249 252 255 256 257 257 256 255 255 255 255 255
320 317 315 314 312 310 309 306 304 301 297 294 290 287 282 277 273 269 264 260 256 251 248 246 244 243 242 241 240 239 238 238 238 238 238 238 239 240 240 240 240 240 240 239 239 238 238 237 237 237 236 236 237 237 238 239 240 241 241 242 242 243 243 243 242 241 241 241 242 243 243 243 243 244 246 247 250 252 254 255 255 255 256 256 255 255 255
323 321 319 317 315 313 312 310 307 303 299 296 292 287 282 279 276 272 268 263 257 252 248 246 245 243 242 241 240 239 238 238 237 237 237 237 238 239 239 240 240 240 239 239 239 239 238 238 237 237 237 236 236 236 237 238 239 240 241 241 242 243 243 243 242 242 241 241 242 243 243 243 243 244 245 246 248 250 252 253 255 256 257 256 255 255 255
327 326 324 322 320 319 317 315 312 309 305 301 296 290 285 282 279 274 270 264 259 254 251 248 246 244 243 241 240 239 238 237 237 237 237 237 237 238 239 239 239 239 239 239 239 239 239 238 238 237 237 236 236 236 236 237 238 239 240 241 242 243 243 243 243 242 242 241 241 242 243 243 243 244 244 245 246 248 249 252 254 255 255 254 254 254 254
333 332 330 329 327 326 325 323 321 318 314 309 303 297 291 286 281 275 270 264 261 257 254 250 247 244 242 241 240 239 238 237 237 237 237 236 236 237 238 239 239 239 239 239 238 239 239 238 238 237 237 236 236 236 236 237 238 238 239 241 242 242 243 243 243 243 242 242 241 242 243 243 243 244 244 244 245 246 248 250 252 253 253 253 253 253 253
339 338 336 334 333 333 332 331 329 327 323 319 313 308 301 294 286 278 271 266 262 258 253 249 246 243 241 240 239 238 238 237 237 237 236 236 236 237 238 238 238 238 238 238 238 238 238 238 237 237 236 236 236 236 235 236 237 237 238 239 241 242 242 243 243 243 243 242 241 241 242 243 244 244 245 245 245 246 247 248 249 251 253 253 253 253 253
343 342 341 339 338 337 336 335 334 332 330 326 322 318 312 305 297 289 280 272 266 259 253 248 245 242 240 239 237 237 236 235 236 236 236 235 235 236 237 237 237 237 237 237 237 237 237 237 237 236 236 236 235 235 235 235 236 236 237 238 239 241 241 242 243 243 243 243 243 242 241 242 243 245 245 245 246 247 248 248 248 249 252 253 254 253 252
346 345 344 343 342 341 340 339 338 337 336 333 330 326 321 315 309 301 292 283 273 265 258 252 247 244 241 238 237 235 234 233 233 234 234 234 234 235 236 236 235 235 235 235 235 235 235 236 236 236 235 235 235 235 234 234 235 236 236 237 238 239 241 242 243 243 244 244 244 243 242 242 243 245 245 245 246 247 248 249 250 250 251 253 254 255 254
348 348 347 347 347 346 345 344 343 342 341 339 336 333 329 324 319 311 303 293 283 272 263 257 250 246 242 239 236 235 234 233 232 232 232 231 231 233 234 233 233 233 232 232 232 232 232 233 233 234 234 234 233 233 233 233 234 235 236 236 237 238 239 240 242 243 243 244 244 244 243 242 243 245 245 246 246 248 249 250 251 252 252 252 254 255 255
351 351 351 352 352 353 353 352 351 349 347 345 343 341 338 334 329 322 314 304 292 280 270 261 254 248 243 239 236 234 234 233 232 230 229 228 229 229 230 230 231 231 230 230 230 230 230 230 230 231 231 231 231 231 231 232 232 233 234 235 236 237 237 239 240 241 242 243 243 243 243 243 243 245 245 245 246 248 251 252 251 252 253 253 253 254 254
355 356 356 357 358 360 1 2 0 359 357 354 353 352 350 347 343 336 328 317 305 289 275 264 257 250 244 239 236 233 232 230 229 228 226 226 226 227 227 227 228 228 228 227 227 227 227 227 227 227 228 228 228 228 229 229 229 231 232 233 234 234 235 236 237 239 240 241 242 242 241 240 240 241 241 240 238 237 241 245 245 244 243 243 245 249 250
358 360 1 2 3 5 7 10 10 9 8 6 5 5 4 2 359 355 349 341 328 308 283 262 252 248 242 237 233 229 227 225 224 223 223 222 222 223 223 223 224 224 223 223 223 223 223 223 223 224 225 225 225 225 226 226 227 228 229 230 232 232 232 234 235 236 237 239 240 241 240 236 233 235 236 235 231 226 226 233 235 233 229 227 229 236 243
1 3 5 7 8 10 13 15 17 17 17 16 17 17 18 17 16 15 15 11 4 357 336 276 241 236 233 230 226 222 218 217 216 215 215 215 215 216 217 218 218 218 218 219 219 219 219 219 219 221 221 222 222 223 223 223 224 225 226 227 229 229 229 231 232 233 234 236 237 239 237 231 228 232 236 236 233 226 222 226 229 227 225 225 225 230 237
4 6 9 12 13 15 17 19 21 23 23 24 26 27 29 30 29 30 34 35 35 37 35 39 68 185 212 216 219 216 213 212 211 210 210 210 210 211 211 213 214 214 214 215 215 214 215 215 215 217 218 218 219 220 220 220 221 222 222 224 226 226 226 227 229 229 231 232 234 236 234 226 221 226 231 233 233 229 224 225 227 227 227 228 229 232 237
6 9 12 16 18 19 20 21 24 26 28 30 33 34 37 39 39 40 45 47 50 55 59 64 73 83 103 139 181 196 199 203 205 205 206 207 208 209 208 209 211 212 213 213 212 211 211 211 212 214 214 214 215 217 218 219 219 219 219 221 223 223 223 224 226 226 226 227 229 232 232 225 217 218 224 226 225 223 220 221 225 227 228 229 230 233 237
8 11 14 18 21 22 23 24 26 28 32 35 38 40 42 45 46 47 49 52 56 61 66 72 76 80 86 97 119 152 173 184 189 193 196 199 202 205 206 206 208 211 212 212 211 210 209 209 211 212 211 211 213 214 215 217 217 217 218 219 220 220 220 220 222 223 223 223 224 227 229 226 219 216 221 222 219 216 214 213 217 223 226 226 226 229 234
10 13 17 21 25 26 27 28 29 31 35 41 45 47 49 51 54 55 56 58 61 65 69 74 76 76 80 86 97 117 143 161 172 178 183 188 191 196 200 202 205 208 209 209 209 208 208 208 209 210 210 210 211 211 212 213 213 214 216 217 218 219 219 218 219 219 219 219 219 222 226 225 219 213 216 220 219 217 213 209 210 215 219 220 221 225 230
12 15 19 25 29 31 32 34 35 37 40 47 53 57 58 60 63 65 65 67 68 69 70 73 75 76 79 83 88 100 118 134 149 161 168 173 180 185 189 194 200 202 204 205 205 205 206 207 207 208 208 208 208 209 209 210 211 212 214 216 217 218 217 217 217 217 215 214 214 216 219 220 214 209 211 216 217 217 214 211 209 210 212 212 216 223 229
15 17 22 30 35 36 38 41 43 44 46 51 59 64 65 66 69 72 73 74 74 73 72 73 74 75 77 80 83 90 102 113 127 140 151 158 165 173 178 184 191 195 197 199 200 201 203 204 205 206 206 204 205 207 208 209 210 210 211 213 215 216 216 215 216 215 213 211 210 211 213 212 208 206 207 211 214 214 214 213 211 210 210 210 214 221 227
18 20 25 34 40 41 43 47 50 52 54 57 63 68 71 73 75 77 78 79 80 79 79 78 78 78 79 81 84 87 93 101 109 120 131 138 146 158 167 172 179 186 189 192 196 198 198 199 199 200 200 199 200 203 204 206 209 210 210 210 210 211 212 214 214 214 212 209 207 207 208 207 205 204 204 208 212 211 210 210 210 209 210 211 215 221 225
22 25 30 39 45 47 49 54 57 60 64 66 69 73 77 79 80 81 81 82 84 85 84 84 83 82 83 83 84 86 90 94 99 106 114 122 131 142 154 162 167 174 178 182 188 191 194 195 194 194 195 196 197 200 202 203 205 207 207 207 207 206 207 210 213 213 211 208 206 205 203 203 204 206 205 206 209 209 206 207 209 210 211 214 218 222 225
27 32 37 45 51 53 56 62 66 68 72 75 76 78 81 82 83 84 84 84 85 85 85 84 84 83 84 84 85 87 89 92 96 99 104 111 117 125 137 147 153 159 163 167 173 179 182 188 191 191 193 195 195 197 200 202 202 203 202 202 203 204 205 206 209 211 210 208 205 204 201 200 204 209 209 208 208 209 208 209 210 211 213 217 220 223 226
32 39 43 49 56 60 64 70 74 76 79 82 83 82 83 84 84 84 84 84 85 85 84 84 84 83 84 85 86 87 88 90 92 96 99 104 107 112 120 127 131 139 144 146 150 158 165 174 182 185 186 188 189 191 193 195 198 199 199 200 200 199 199 202 205 206 206 205 205 203 200 199 202 209 213 212 211 210 210 211 213 214 216 219 222 224 226
37 43 47 53 61 66 71 77 83 85 86 87 87 86 86 86 85 86 86 85 86 86 86 86 86 85 85 85 86 87 88 88 90 93 96 100 102 104 108 112 114 119 125 128 132 138 144 150 161 170 172 175 177 179 183 188 191 193 195 198 197 194 195 199 202 202 200 200 202 202 200 198 201 207 214 218 218 215 212 216 220 222 221 223 224 225 225
42 47 52 59 66 72 77 82 88 92 92 91 91 91 90 89 90 90 89 88 88 88 87 86 86 86 86 85 86 87 88 88 89 90 91 94 98 100 102 105 108 110 112 115 121 126 129 131 137 147 153 159 165 170 174 180 185 187 190 193 194 194 195 198 200 200 198 198 199 200 198 199 201 205 212 220 222 219 216 219 225 225 223 225 228 228 227
49 54 60 65 71 75 79 84 90 94 95 95 94 94 94 95 94 94 92 90 89 87 86 85 84 84 85 87 87 88 88 88 88 89 89 90 93 97 99 102 105 106 105 107 111 115 117 119 124 132 139 146 154 160 165 170 175 179 184 187 189 193 197 199 200 201 199 197 198 197 196 198 202 206 211 217 221 220 218 218 219 221 225 227 230 233 233
57 62 66 72 76 79 82 86 90 94 97 98 97 98 98 98 96 95 94 93 91 89 87 86 86 86 86 88 89 90 90 89 89 89 89 90 92 94 96 98 100 101 102 104 108 109 110 112 115 120 126 132 138 144 150 157 162 166 171 176 180 187 195 200 202 202 201 199 197 194 194 198 203 207 212 217 219 220 219 216 213 218 225 226 228 233 232
66 70 71 76 81 83 85 87 91 96 99 100 101 102 102 100 99 99 98 97 95 93 91 90 89 88 87 87 90 92 93 92 90 90 91 91 93 94 95 96 98 99 100 103 105 105 105 105 106 109 113 116 120 125 131 137 144 150 155 162 169 177 186 193 198 202 204 204 199 193 194 199 204 208 213 217 218 218 219 216 212 215 222 224 225 227 222
77 79 73 78 82 84 86 89 94 99 102 103 103 103 102 102 102 101 99 97 96 96 94 91 90 89 88 88 90 94 95 94 93 93 94 95 95 96 97 99 100 100 101 101 102 101 100 99 99 100 102 104 106 110 113 115 120 128 136 144 155 166 174 180 189 197 202 204 201 196 196 200 204 207 213 216 217 217 218 216 211 211 218 221 219 215 210
87 93 82 80 84 88 92 93 96 101 104 105 106 105 104 103 103 101 98 98 97 97 95 93 91 90 90 89 90 94 97 96 94 95 97 98 99 100 101 102 103 104 105 105 105 103 101 100 98 97 97 97 98 101 104 105 107 112 118 125 135 147 158 168 180 189 194 197 200 201 200 201 204 208 213 216 215 215 217 216 212 213 217 219 216 212 211
93 103 91 88 91 97 101 101 101 102 106 108 109 109 107 105 102 98 98 101 102 101 100 99 98 95 93 92 93 97 100 99 98 98 100 102 103 105 104 104 105 107 108 108 107 106 106 105 104 102 103 105 108 111 113 114 117 122 126 128 132 138 147 160 174 185 191 195 199 202 203 204 206 210 213 214 213 215 219 219 217 216 216 216 217 217 219
83 92 95 99 102 106 109 110 107 106 108 111 113 113 111 109 105 100 101 107 112 111 108 108 106 102 98 98 100 102 105 107 106 104 103 106 109 109 107 106 108 111 113 113 112 111 111 112 112 112 115 118 122 126 128 129 132 136 136 136 140 148 154 158 169 182 190 194 197 201 204 205 207 209 211 213 215 218 218 218 217 215 212 212 217 221 223
61 79 96 108 115 117 118 121 121 115 112 114 118 119 117 116 113 107 105 112 119 120 118 117 115 111 107 107 106 106 110 116 114 110 110 115 116 112 109 112 116 119 121 121 120 120 120 120 121 123 124 125 128 135 137 137 139 145 148 147 149 155 162 163 164 171 179 185 191 196 200 203 206 208 210 212 214 214 212 211 211 210 209 213 221 225 226
69 89 103 117 127 129 130 135 139 134 123 119 120 123 124 123 121 116 111 111 115 121 124 125 124 121 117 115 113 114 119 124 122 120 122 124 120 115 116 122 127 128 128 129 127 126 127 128 128 130 131 132 135 141 145 144 145 151 157 157 156 158 164 168 167 165 167 170 175 179 184 189 195 200 204 206 209 210 209 209 211 212 214 220 225 227 227
68 93 111 129 143 144 143 149 157 155 139 130 127 128 130 130 127 124 119 110 106 114 124 129 130 129 126 124 122 123 124 126 129 134 135 130 123 122 128 134 135 135 137 136 134 134 136 136 137 139 141 143 144 147 150 151 154 158 163 164 162 161 165 170 171 168 166 166 167 170 173 178 185 192 197 202 206 210 212 214 215 217 220 224 226 227 229
61 82 107 135 155 160 159 165 173 174 161 150 143 138 137 137 135 133 129 120 113 114 123 129 135 139 139 135 130 128 126 129 139 147 144 136 133 135 138 140 144 146 146 144 144 144 145 145 146 148 151 153 155 155 156 157 160 164 168 169 168 167 169 172 175 177 177 177 179 181 183 186 190 195 200 204 208 211 215 218 218 218 219 221 223 225 229
55 71 96 136 165 176 180 183 187 190 186 176 165 159 154 149 146 144 140 134 125 121 122 126 136 148 153 151 144 139 137 140 148 153 150 146 148 149 147 146 151 155 154 153 153 153 154 155 155 157 159 162 164 164 164 165 166 168 172 175 175 175 176 178 181 184 186 188 190 191 192 194 198 202 203 205 208 211 215 218 220 220 219 219 220 222 225
50 58 71 112 165 183 192 198 203 206 206 200 193 188 181 169 160 158 158 152 144 136 131 130 135 146 156 163 164 161 157 154 155 155 155 159 165 165 160 158 160 163 163 163 162 161 163 166 167 167 168 170 172 172 172 173 173 173 176 180 182 183 183 184 186 189 192 193 194 195 196 199 202 204 205 206 209 212 215 219 222 223 223 221 220 221 224
Height
10634 10629 10625 10621 10619 10617 10615 10615 10613 10613 10614 10612 10612 10613 10614 10615 10613 10613 10620 10623 10622 10621 10622 10628 10636 10640 10646 10653 10658 10660 10664 10668 10672 10675 10680 10686 10691 10697 10704 10711 10716 10719 10722 10726 10731 10737 10743 10746 10749 10753 10757 10760 10766 10773 10779 10785 10788 10788 10791 10795 10799 10806 10812 10816 10820 10821 10823 10826 10829 10834 10837 10839 10843 10847 10849 10851 10854 10857 10860 10862 10862 10866 10870 10871 10873 10873 10869
10615 10610 10606 10602 10600 10597 10596 10595 10594 10594 10595 10594 10594 10595 10596 10598 10596 10596 10602 10606 10605 10604 10605 10611 10619 10622 10628 10635 10639 10642 10645 10649 10654 10659 10665 10669 10674 10681 10688 10695 10702 10707 10710 10713 10717 10722 10726 10731 10737 10742 10747 10750 10755 10761 10767 10773 10776 10777 10782 10786 10789 10797 10802 10805 10811 10814 10816 10819 10822 10828 10832 10833 10837 10841 10843 10847 10849 10851 10854 10856 10858 10863 10867 10868 10870 10871 10865
10594 10589 10585 10581 10579 10577 10576 10575 10574 10574 10575 10575 10575 10576 10578 10580 10579 10578 10582 10588 10590 10586 10588 10595 10600 10604 10610 10614 10618 10622 10625 10631 10636 10642 10647 10650 10655 10663 10670 10679 10686 10691 10696 10699 10704 10708 10710 10716 10724 10730 10736 10740 10744 10749 10753 10760 10764 10766 10772 10777 10781 10788 10792 10794 10801 10806 10810 10813 10817 10821 10822 10822 10828 10833 10835 10839 10842 10844 10848 10850 10854 10860 10862 10864 10867 10868 10862
10572 10567 10563 10559 10557 10555 10553 10553 10553 10552 10552 10553 10553 10555 10558 10561 10562 10560 10560 10568 10573 10569 10570 10578 10581 10584 10592 10595 10597 10602 10607 10612 10618 10624 10629 10631 10638 10647 10654 10660 10666 10672 10681 10687 10691 10696 10697 10702 10710 10717 10722 10727 10733 10737 10740 10746 10752 10754 10760 10767 10772 10778 10783 10784 10789 10797 10804 10808 10810 10811 10810 10813 10822 10827 10828 10831 10834 10836 10840 10845 10852 10856 10857 10860 10863 10862 10860
10549 10544 10540 10536 10533 10530 10529 10528 10528 10528 10527 10528 10529 10531 10535 10539 10540 10540 10539 10545 10552 10551 10552 10559 10562 10565 10573 10577 10578 10583 10588 10592 10599 10606 10610 10615 10624 10632 10635 10639 10647 10656 10668 10675 10678 10683 10686 10690 10696 10701 10708 10714 10720 10726 10729 10734 10739 10742 10747 10754 10760 10768 10773 10772 10778 10789 10797 10800 10802 10801 10801 10807 10815 10818 10820 10824 10827 10828 10834 10842 10849 10850 10852 10857 10857 10855 10857
10526 10520 10515 10511 10507 10505 10503 10502 10501 10501 10500 10501 10502 10505 10509 10513 10514 10518 10520 10522 10527 10531 10534 10539 10541 10545 10553 10557 10559 10564 10569 10574 10581 10588 10593 10600 10608 10612 10614 10621 10631 10641 10652 10659 10663 10669 10674 10678 10680 10685 10694 10701 10706 10712 10716 10720 10726 10730 10734 10741 10749 10757 10762 10763 10768 10779 10787 10792 10793 10791 10791 10798 10804 10807 10812 10816 10818 10822 10830 10838 10842 10843 10848 10852 10849 10848 10854
10502 10496 10490 10487 10483 10479 10478 10476 10475 10474 10474 10474 10476 10478 10482 10485 10487 10492 10497 10498 10501 10508 10514 10518 10521 10525 10531 10537 10540 10545 10551 10558 10564 10570 10576 10581 10586 10591 10596 10605 10614 10623 10632 10640 10646 10653 10658 10662 10665 10672 10679 10686 10692 10698 10702 10706 10713 10717 10720 10728 10737 10744 10750 10753 10759 10770 10777 10780 10782 10781 10781 10786 10792 10797 10804 10808 10812 10818 10825 10831 10834 10837 10842 10844 10842 10845 10850
10479 10473 10468 10464 10460 10457 10455 10453 10451 10450 10450 10450 10452 10454 10456 10458 10461 10465 10471 10473 10475 10482 10490 10495 10499 10502 10508 10516 10521 10525 10531 10540 10547 10552 10556 10560 10566 10573 10580 10587 10596 10604 10611 10620 10628 10635 10640 10646 10654 10660 10664 10670 10677 10682 10687 10693 10699 10702 10707 10715 10725 10734 10739 10743 10750 10760 10765 10767 10770 10771 10770 10775 10783 10790 10797 10802 10808 10814 10820 10824 10827 10831 10835 10836 10837 10842 10845
10459 10453 10448 10444 10440 10437 10435 10433 10431 10430 10430 10429 10431 10433 10433 10434 10437 10441 10445 10448 10451 10457 10463 10470 10477 10480 10485 10494 10501 10504 10511 10520 10528 10533 10537 10542 10547 10555 10562 10569 10577 10585 10593 10601 10610 10617 10625 10634 10642 10647 10650 10655 10660 10665 10672 10679 10684 10689 10695 10702 10714 10723 10728 10732 10738 10749 10755 10755 10756 10759 10761 10765 10773 10783 10794 10801 10805 10810 10814 10816 10818 10822 10826 10828 10832 10840 10841
10442 10437 10432 10427 10424 10421 10418 10417 10415 10413 10413 10412 10412 10414 10414 10414 10416 10420 10423 10425 10429 10434 10438 10445 10453 10457 10463 10472 10479 10484 10491 10500 10508 10514 10519 10525 10529 10535 10543 10551 10559 10567 10574 10582 10591 10601 10612 10621 10626 10630 10635 10640 10644 10649 10657 10663 10670 10678 10683 10689 10701 10711 10716 10720 10725 10737 10747 10743 10741 10749 10753 10752 10764 10784 10795 10795 10797 10801 10805 10805 10807 10812 10816 10820 10827 10834 10833
10428 10422 10418 10413 10410 10408 10405 10403 10401 10399 10398 10397 10397 10397 10397 10397 10399 10402 10404 10404 10409 10415 10417 10423 10430 10435 10441 10450 10458 10464 10471 10479 10487 10495 10500 10506 10509 10514 10523 10533 10542 10550 10556 10563 10574 10586 10597 10604 10608 10612 10619 10626 10630 10635 10640 10647 10657 10664 10669 10676 10688 10697 10704 10706 10710 10725 10738 10731 10729 10739 10742 10746 10767 10783 10781 10778 10785 10790 10790 10792 10796 10800 10805 10813 10821 10824 10823
10416 10410 10406 10402 10398 10396 10393 10391 10388 10386 10384 10384 10383 10383 10383 10383 10384 10386 10387 10388 10392 10398 10400 10404 10411 10415 10421 10430 10437 10444 10450 10457 10465 10473 10479 10484 10489 10494 10503 10513 10524 10532 10538 10546 10558 10568 10577 10585 10590 10596 10604 10612 10617 10620 10624 10633 10643 10649 10654 10663 10673 10681 10690 10692 10695 10711 10724 10720 10718 10726 10734 10751 10768 10766 10759 10766 10774 10773 10773 10779 10786 10792 10800 10809 10814 10815 10816
10405 10400 10395 10391 10387 10384 10382 10379 10377 10375 10373 10372 10371 10371 10371 10372 10372 10373 10374 10375 10378 10384 10386 10390 10395 10399 10404 10411 10417 10423 10429 10435 10443 10452 10458 10463 10468 10475 10483 10493 10504 10513 10521 10530 10540 10549 10559 10568 10574 10581 10590 10597 10602 10605 10611 10620 10628 10632 10639 10649 10657 10665 10672 10676 10681 10696 10709 10710 10709 10716 10732 10751 10756 10748 10748 10757 10758 10756 10762 10773 10782 10790 10797 10802 10806 10809 10810
10395 10390 10386 10381 10377 10374 10372 10370 10367 10365 10363 10362 10361 10360 10361 10361 10361 10361 10363 10364 10367 10372 10374 10377 10381 10384 10388 10394 10399 10405 10410 10416 10423 10431 10438 10443 10448 10455 10464 10474 10484 10494 10504 10514 10523 10531 10541 10550 10557 10565 10575 10582 10587 10593 10600 10605 10610 10616 10624 10634 10641 10647 10653 10658 10667 10682 10694 10698 10699 10709 10727 10740 10740 10738 10742 10747 10746 10749 10757 10766 10775 10784 10790 10794 10798 10802 10802
10387 10382 10378 10373 10369 10366 10364 10361 10359 10356 10355 10353 10352 10351 10351 10351 10351 10352 10353 10354 10358 10361 10363 10364 10367 10370 10374 10380 10385 10389 10394 10400 10406 10412 10419 10425 10430 10436 10444 10455 10464 10474 10486 10496 10504 10513 10522 10531 10540 10549 10559 10566 10573 10581 10587 10590 10594 10601 10610 10619 10625 10628 10632 10640 10653 10667 10678 10683 10690 10701 10715 10724 10728 10732 10736 10739 10742 10745 10748 10754 10763 10772 10779 10786 10790 10793 10794
10380 10375 10370 10366 10362 10359 10356 10354 10352 10349 10347 10346 10345 10344 10343 10342 10342 10344 10345 10346 10349 10350 10351 10352 10355 10359 10363 10367 10371 10375 10380 10385 10390 10396 10401 10408 10413 10417 10425 10435 10444 10454 10466 10476 10485 10495 10504 10514 10524 10533 10543 10552 10559 10568 10573 10574 10579 10587 10595 10603 10607 10608 10613 10624 10637 10651 10661 10670 10681 10692 10702 10712 10719 10724 10729 10733 10736 10738 10738 10739 10748 10761 10771 10777 10780 10782 10785
10374 10369 10364 10360 10356 10353 10350 10348 10346 10343 10341 10340 10339 10337 10335 10335 10336 10337 10338 10339 10340 10340 10341 10343 10346 10349 10353 10356 10359 10363 10368 10372 10377 10381 10386 10392 10398 10402 10408 10417 10425 10436 10448 10458 10468 10477 10486 10498 10508 10517 10527 10536 10543 10551 10557 10560 10566 10573 10580 10586 10589 10590 10597 10608 10619 10634 10648 10660 10672 10680 10689 10700 10709 10715 10721 10726 10730 10731 10727 10727 10740 10756 10763 10764 10768 10771 10773
10369 10364 10359 10355 10351 10348 10345 10342 10340 10337 10335 10334 10332 10331 10329 10329 10330 10330 10331 10331 10331 10332 10334 10337 10339 10342 10344 10347 10351 10354 10358 10361 10365 10368 10373 10380 10385 10388 10393 10400 10409 10420 10432 10442 10451 10460 10469 10480 10491 10501 10511 10518 10525 10535 10544 10547 10554 10561 10566 10570 10572 10575 10584 10593 10603 10619 10634 10647 10659 10668 10678 10689 10698 10704 10712 10718 10721 10720 10717 10723 10738 10748 10749 10751 10756 10759 10761
10365 10360 10355 10351 10347 10344 10340 10337 10335 10332 10330 10328 10327 10325 10324 10324 10324 10324 10324 10324 10324 10326 10329 10330 10332 10334 10337 10340 10342 10345 10348 10351 10355 10358 10363 10369 10374 10376 10379 10387 10397 10407 10417 10426 10435 10443 10451 10461 10471 10482 10493 10500 10507 10519 10529 10534 10540 10547 10552 10553 10555 10560 10569 10578 10589 10604 10619 10632 10647 10658 10666 10676 10685 10692 10700 10708 10711 10710 10710 10720 10731 10734 10735 10740 10745 10748 10751
10362 10357 10352 10348 10344 10340 10336 10333 10331 10328 10326 10324 10322 10321 10320 10319 10319 10318 10318 10319 10320 10321 10323 10323 10325 10327 10329 10332 10334 10337 10340 10344 10347 10350 10355 10360 10365 10367 10370 10378 10387 10395 10403 10411 10419 10427 10433 10441 10452 10463 10474 10482 10489 10500 10512 10518 10523 10529 10536 10538 10541 10547 10556 10564 10574 10589 10603 10616 10631 10644 10655 10666 10674 10680 10687 10696 10701 10701 10704 10712 10720 10724 10726 10729 10734 10738 10742
10359 10355 10350 10345 10341 10337 10333 10330 10328 10325 10323 10320 10319 10317 10316 10315 10315 10314 10314 10315 10315 10316 10317 10318 10319 10321 10323 10325 10327 10330 10333 10336 10339 10342 10346 10352 10357 10359 10362 10369 10377 10384 10390 10398 10404 10412 10419 10426 10434 10445 10455 10463 10471 10483 10495 10502 10506 10512 10521 10525 10527 10532 10541 10550 10562 10575 10588 10600 10616 10632 10646 10657 10663 10668 10676 10685 10691 10693 10696 10702 10710 10716 10719 10719 10721 10726 10731
10358 10353 10349 10344 10340 10336 10332 10328 10326 10323 10320 10318 10316 10315 10314 10313 10312 10311 10311 10311 10312 10312 10313 10314 10315 10316 10318 10319 10321 10324 10326 10329 10331 10335 10340 10345 10349 10351 10354 10361 10367 10373 10379 10386 10391 10399 10406 10412 10420 10429 10437 10445 10455 10466 10477 10485 10492 10498 10505 10511 10515 10521 10532 10543 10554 10565 10576 10589 10603 10616 10631 10645 10654 10658 10665 10674 10682 10685 10688 10693 10700 10707 10711 10711 10710 10712 10717
10357 10352 10348 10343 10339 10335 10331 10328 10324 10322 10319 10317 10315 10313 10312 10311 10310 10309 10309 10309 10309 10309 10310 10310 10311 10312 10313 10315 10317 10319 10321 10323 10326 10330 10334 10338 10341 10344 10348 10353 10357 10362 10369 10375 10380 10387 10394 10400 10407 10415 10421 10429 10440 10450 10459 10468 10477 10482 10488 10497 10505 10513 10525 10537 10546 10554 10563 10576 10588 10599 10615 10634 10644 10647 10653 10664 10674 10680 10683 10687 10692 10696 10700 10703 10702 10701 10704
10358 10352 10348 10343 10339 10335 10331 10328 10324 10321 10319 10317 10315 10313 10311 10310 10309 10308 10307 10307 10307 10307 10307 10307 10308 10309 10310 10311 10313 10314 10317 10319 10322 10325 10329 10331 10334 10337 10341 10345 10349 10355 10361 10366 10372 10378 10383 10389 10396 10402 10408 10416 10426 10434 10442 10451 10459 10464 10471 10481 10491 10502 10517 10529 10536 10542 10551 10563 10575 10588 10605 10623 10631 10634 10644 10657 10670 10678 10678 10677 10681 10686 10689 10692 10692 10690 10691
10358 10353 10348 10344 10339 10335 10331 10328 10325 10322 10319 10317 10315 10313 10311 10310 10309 10308 10307 10306 10306 10305 10305 10305 10306 10307 10307 10309 10310 10311 10313 10316 10318 10321 10324 10326 10329 10332 10336 10340 10343 10348 10354 10359 10364 10369 10374 10380 10386 10391 10397 10404 10412 10419 10426 10434 10442 10448 10456 10465 10476 10491 10508 10517 10523 10532 10542 10552 10563 10576 10594 10613 10620 10620 10630 10645 10660 10673 10674 10668 10669 10675 10678 10680 10681 10680 10679
10359 10354 10349 10345 10340 10336 10332 10329 10326 10323 10320 10318 10316 10314 10312 10310 10309 10308 10307 10306 10305 10305 10304 10304 10304 10305 10305 10306 10307 10309 10310 10312 10314 10317 10320 10323 10326 10329 10332 10335 10338 10343 10347 10352 10356 10361 10365 10371 10377 10382 10387 10394 10400 10406 10413 10421 10429 10435 10443 10454 10465 10480 10494 10502 10511 10523 10532 10541 10552 10562 10578 10600 10611 10611 10617 10629 10643 10657 10663 10659 10660 10666 10667 10669 10671 10670 10670
10361 10356 10351 10346 10342 10338 10334 10331 10327 10325 10322 10319 10317 10315 10313 10311 10309 10308 10307 10306 10305 10304 10304 10303 10304 10304 10304 10305 10306 10307 10308 10310 10311 10314 10316 10318 10321 10324 10327 10331 10334 10338 10342 10345 10349 10354 10359 10365 10371 10375 10379 10386 10392 10397 10404 10411 10417 10424 10434 10444 10452 10464 10478 10488 10498 10511 10522 10531 10542 10552 10566 10587 10601 10604 10609 10616 10624 10636 10645 10646 10650 10656 10657 10657 10662 10664 10666
10362 10357 10352 10348 10344 10340 10336 10333 10330 10327 10324 10322 10319 10317 10315 10313 10311 10309 10308 10307 10306 10305 10304 10304 10304 10304 10305 10306 10306 10307 10309 10310 10311 10313 10314 10316 10319 10321 10325 10328 10331 10334 10337 10340 10345 10351 10356 10361 10365 10368 10373 10379 10385 10390 10396 10401 10405 10414 10426 10434 10440 10451 10466 10475 10484 10498 10513 10523 10532 10542 10557 10577 10591 10596 10599 10603 10609 10619 10627 10629 10635 10644 10647 10649 10655 10659 10662
10364 10359 10354 10350 10346 10342 10339 10336 10333 10330 10327 10324 10322 10319 10317 10315 10313 10311 10310 10308 10307 10306 10305 10305 10305 10305 10305 10306 10307 10308 10309 10310 10312 10313 10314 10316 10319 10321 10324 10327 10329 10332 10335 10338 10343 10348 10352 10356 10359 10362 10368 10374 10378 10383 10388 10393 10400 10411 10418 10423 10430 10440 10452 10462 10471 10484 10500 10512 10520 10530 10544 10564 10581 10588 10590 10593 10598 10606 10613 10616 10622 10633 10639 10643 10648 10653 10655
10367 10361 10357 10352 10348 10345 10343 10340 10336 10333 10330 10327 10325 10322 10319 10317 10315 10314 10312 10310 10309 10308 10307 10307 10307 10307 10307 10307 10308 10308 10309 10310 10311 10313 10314 10316 10318 10321 10323 10326 10328 10330 10333 10337 10341 10345 10348 10352 10355 10358 10364 10369 10373 10379 10386 10391 10399 10406 10410 10415 10423 10431 10439 10449 10460 10473 10487 10502 10513 10521 10529 10547 10568 10580 10583 10586 10590 10597 10604 10609 10616 10624 10630 10633 10639 10644 10646
10369 10364 10359 10355 10352 10349 10346 10344 10341 10337 10334 10331 10328 10325 10322 10320 10318 10316 10315 10313 10312 10311 10310 10309 10309 10309 10309 10309 10309 10310 10310 10311 10312 10313 10314 10316 10318 10320 10323 10325 10326 10329 10332 10335 10339 10343 10345 10348 10352 10356 10361 10366 10371 10377 10383 10388 10394 10399 10403 10410 10418 10425 10433 10443 10453 10463 10477 10493 10506 10513 10519 10535 10557 10570 10575 10579 10582 10587 10594 10601 10607 10614 10619 10624 10629 10633 10634
10372 10367 10363 10359 10356 10353 10351 10348 10345 10342 10338 10335 10332 10329 10326 10324 10322 10320 10318 10316 10315 10314 10313 10312 10311 10311 10311 10311 10311 10312 10312 10313 10313 10314 10315 10317 10318 10320 10322 10324 10326 10329 10331 10334 10337 10341 10343 10346 10350 10354 10359 10364 10370 10375 10380 10384 10389 10394 10399 10406 10413 10419 10429 10438 10446 10456 10470 10484 10497 10506 10515 10530 10548 10560 10565 10569 10572 10577 10584 10590 10596 10603 10609 10614 10620 10623 10625
10374 10370 10367 10363 10360 10357 10355 10353 10350 10347 10343 10340 10336 10333 10331 10328 10326 10324 10322 10320 10319 10318 10317 10316 10315 10315 10314 10314 10314 10314 10315 10315 10315 10316 10317 10318 10319 10321 10323 10325 10327 10329 10332 10334 10337 10340 10343 10346 10350 10354 10359 10364 10370 10374 10378 10382 10386 10390 10396 10402 10409 10416 10425 10434 10441 10451 10464 10476 10488 10498 10509 10523 10537 10546 10551 10556 10560 10567 10575 10581 10587 10594 10600 10605 10610 10613 10615
10378 10374 10370 10367 10364 10362 10360 10357 10354 10352 10349 10345 10342 10338 10335 10333 10330 10328 10326 10325 10323 10323 10322 10321 10320 10319 10319 10318 10318 10318 10317 10317 10317 10318 10318 10319 10321 10322 10324 10326 10328 10330 10332 10335 10338 10340 10343 10346 10350 10354 10359 10364 10368 10371 10375 10379 10383 10388 10394 10400 10407 10414 10422 10430 10437 10446 10458 10469 10480 10490 10502 10516 10526 10533 10540 10546 10552 10559 10567 10573 10579 10586 10591 10594 10599 10602 10604
10381 10377 10374 10370 10368 10366 10364 10362 10359 10357 10354 10351 10347 10343 10340 10338 10335 10333 10331 10330 10328 10327 10326 10325 10324 10324 10323 10323 10322 10322 10321 10321 10321 10321 10321 10322 10323 10325 10326 10327 10329 10331 10333 10336 10339 10342 10345 10348 10351 10354 10358 10361 10365 10369 10373 10377 10381 10387 10394 10400 10406 10412 10418 10425 10434 10444 10455 10466 10475 10484 10497 10510 10519 10525 10532 10538 10544 10551 10558 10565 10571 10577 10582 10588 10592 10596 10599
10384 10380 10377 10375 10372 10370 10368 10367 10365 10363 10360 10357 10353 10349 10346 10343 10341 10339 10337 10336 10334 10333 10331 10330 10330 10329 10329 10328 10328 10327 10326 10326 10325 10325 10325 10326 10326 10327 10329 10330 10331 10333 10335 10338 10341 10343 10346 10349 10352 10355 10358 10362 10366 10370 10373 10377 10382 10387 10393 10399 10404 10410 10417 10426 10435 10446 10456 10465 10473 10481 10493 10505 10514 10520 10525 10530 10537 10544 10551 10559 10566 10572 10578 10584 10588 10591 10596
10386 10384 10381 10379 10376 10374 10372 10371 10370 10368 10365 10362 10358 10355 10352 10349 10347 10345 10343 10342 10340 10339 10337 10336 10336 10335 10334 10334 10333 10333 10332 10331 10331 10330 10330 10330 10330 10331 10332 10333 10334 10336 10338 10340 10343 10346 10349 10351 10354 10357 10361 10364 10368 10371 10375 10379 10383 10388 10393 10397 10403 10410 10418 10427 10434 10442 10452 10463 10471 10479 10488 10499 10509 10516 10520 10524 10531 10540 10548 10555 10563 10569 10575 10580 10583 10586 10589
10390 10388 10386 10383 10380 10378 10377 10375 10374 10372 10369 10366 10363 10360 10358 10356 10354 10352 10350 10348 10347 10345 10344 10343 10342 10341 10341 10341 10340 10339 10338 10337 10337 10337 10336 10335 10336 10336 10337 10337 10338 10340 10342 10344 10346 10348 10351 10354 10357 10360 10363 10366 10370 10373 10376 10379 10383 10388 10393 10398 10404 10411 10417 10423 10429 10437 10447 10458 10467 10476 10485 10495 10504 10512 10516 10519 10526 10537 10546 10552 10559 10565 10570 10572 10574 10578 10582
10393 10391 10389 10386 10384 10383 10381 10380 10378 10376 10374 10371 10368 10366 10364 10362 10361 10359 10356 10355 10354 10351 10350 10349 10348 10347 10347 10347 10346 10346 10345 10343 10343 10343 10342 10342 10342 10342 10342 10343 10344 10345 10347 10349 10350 10352 10354 10357 10360 10363 10366 10369 10372 10374 10377 10381 10384 10389 10393 10399 10406 10413 10417 10422 10429 10436 10445 10453 10462 10473 10483 10490 10498 10507 10513 10516 10522 10533 10542 10549 10554 10559 10562 10564 10567 10571 10577
10396 10394 10392 10390 10389 10387 10386 10384 10382 10380 10378 10376 10373 10371 10370 10369 10367 10365 10363 10362 10360 10358 10356 10356 10355 10354 10353 10353 10352 10352 10351 10350 10349 10349 10348 10348 10348 10348 10349 10349 10350 10351 10352 10354 10355 10357 10359 10362 10365 10367 10370 10373 10375 10378 10381 10384 10388 10392 10397 10403 10409 10416 10421 10426 10432 10438 10445 10452 10459 10470 10480 10489 10496 10504 10510 10513 10519 10527 10536 10543 10549 10553 10556 10559 10562 10566 10571
10398 10396 10395 10394 10393 10391 10390 10388 10386 10385 10383 10381 10379 10377 10377 10376 10374 10371 10369 10368 10366 10364 10363 10362 10362 10361 10360 10359 10359 10358 10357 10357 10356 10355 10355 10355 10355 10355 10356 10356 10356 10357 10359 10360 10361 10363 10365 10368 10371 10373 10376 10378 10381 10384 10387 10390 10393 10398 10403 10408 10414 10419 10424 10429 10435 10441 10447 10452 10458 10467 10478 10487 10495 10501 10506 10510 10517 10524 10531 10537 10544 10547 10549 10553 10557 10561 10564
10400 10400 10399 10398 10396 10395 10394 10392 10391 10389 10388 10387 10385 10383 10382 10381 10379 10377 10376 10374 10372 10370 10370 10370 10369 10368 10368 10367 10366 10366 10364 10364 10363 10362 10362 10362 10362 10361 10362 10364 10364 10365 10367 10368 10369 10370 10373 10375 10377 10380 10383 10386 10388 10391 10394 10397 10400 10404 10408 10413 10418 10422 10426 10431 10438 10444 10450 10454 10459 10467 10476 10484 10492 10499 10503 10508 10514 10520 10526 10532 10539 10542 10544 10548 10553 10556 10559
10404 10404 10403 10401 10399 10398 10397 10396 10396 10395 10394 10392 10391 10389 10388 10386 10384 10383 10382 10380 10378 10378 10378 10377 10377 10376 10375 10375 10375 10374 10373 10372 10371 10370 10369 10369 10369 10368 10369 10370 10371 10372 10374 10376 10377 10380 10382 10384 10386 10389 10391 10394 10396 10399 10401 10404 10407 10411 10414 10418 10422 10426 10431 10435 10439 10444 10450 10456 10462 10468 10473 10481 10488 10495 10499 10503 10510 10516 10521 10528 10534 10537 10540 10545 10550 10553 10557
10407 10408 10407 10404 10402 10401 10402 10402 10401 10400 10399 10398 10396 10395 10393 10392 10390 10389 10387 10386 10385 10385 10385 10385 10385 10385 10384 10383 10383 10383 10381 10380 10379 10378 10378 10377 10377 10377 10377 10377 10378 10379 10381 10383 10385 10388 10390 10392 10395 10397 10400 10402 10405 10407 10410 10412 10415 10418 10421 10424 10427 10431 10434 10438 10440 10443 10448 10455 10462 10468 10473 10479 10485 10491 10495 10500 10507 10514 10519 10525 10531 10534 10538 10543 10548 10552 10556
10411 10411 10409 10406 10405 10405 10406 10406 10406 10405 10404 10402 10401 10399 10398 10397 10395 10394 10392 10391 10391 10392 10392 10392 10392 10392 10391 10390 10390 10389 10389 10388 10387 10387 10386 10385 10385 10385 10385 10385 10386 10387 10389 10390 10392 10395 10397 10399 10402 10404 10407 10410 10413 10415 10417 10419 10422 10425 10428 10430 10433 10435 10438 10441 10444 10446 10448 10453 10460 10467 10473 10477 10482 10488 10494 10500 10506 10513 10518 10523 10527 10531 10535 10540 10545 10549 10552
10415 10413 10410 10409 10409 10410 10410 10410 10410 10409 10408 10407 10405 10404 10402 10401 10400 10399 10397 10396 10396 10396 10397 10398 10398 10398 10397 10397 10397 10395 10394 10395 10394 10394 10393 10394 10393 10392 10392 10393 10394 10395 10396 10397 10399 10401 10403 10405 10408 10410 10413 10416 10418 10421 10422 10424 10427 10430 10433 10436 10439 10442 10444 10446 10448 10450 10453 10456 10460 10465 10470 10475 10481 10489 10497 10503 10508 10512 10516 10519 10523 10528 10533 10539 10542 10543 10546
10418 10416 10413 10412 10413 10413 10413 10413 10414 10413 10412 10410 10409 10408 10406 10405 10404 10403 10402 10401 10400 10399 10400 10401 10403 10402 10402 10403 10403 10401 10401 10401 10400 10399 10400 10401 10401 10399 10399 10401 10402 10402 10403 10403 10405 10406 10408 10411 10413 10416 10418 10421 10423 10426 10427 10429 10431 10434 10437 10440 10444 10447 10449 10451 10453 10455 10458 10461 10464 10467 10472 10479 10486 10493 10499 10504 10508 10511 10514 10517 10521 10526 10532 10535 10536 10537 10540
10421 10419 10416 10415 10416 10416 10416 10416 10417 10416 10415 10414 10413 10411 10410 10409 10408 10407 10406 10406 10405 10404 10403 10404 10406 10406 10407 10407 10407 10406 10406 10406 10406 10405 10405 10406 10406 10405 10406 10407 10408 10408 10408 10409 10410 10411 10413 10415 10418 10420 10423 10425 10427 10429 10431 10433 10436 10439 10441 10444 10446 10450 10453 10455 10457 10459 10461 10465 10468 10472 10477 10482 10488 10494 10498 10502 10506 10508 10511 10514 10518 10523 10527 10529 10530 10532 10535
10423 10420 10418 10418 10419 10419 10419 10419 10419 10419 10418 10417 10416 10415 10414 10413 10412 10411 10411 10410 10410 10409 10409 10409 10410 10411 10411 10411 10411 10411 10411 10411 10411 10411 10411 10411 10411 10411 10412 10413 10413 10413 10413 10414 10415 10416 10417 10419 10421 10423 10426 10428 10430 10432 10435 10437 10440 10442 10445 10447 10449 10452 10455 10458 10460 10463 10465 10468 10472 10476 10480 10483 10487 10492 10496 10500 10503 10506 10509 10511 10515 10519 10522 10524 10525 10528 10530
10424 10422 10420 10421 10421 10421 10421 10421 10421 10421 10420 10419 10418 10417 10417 10416 10415 10415 10414 10414 10413 10413 10413 10413 10414 10414 10414 10414 10414 10415 10415 10416 10416 10417 10417 10416 10416 10417 10418 10418 10418 10418 10418 10418 10419 10420 10421 10422 10424 10425 10427 10429 10431 10434 10437 10439 10442 10445 10447 10450 10452 10455 10457 10460 10463 10466 10469 10471 10474 10478 10481 10484 10488 10491 10494 10497 10500 10503 10505 10508 10511 10514 10516 10518 10521 10523 10526
10425 10423 10423 10423 10423 10423 10423 10423 10423 10423 10422 10422 10421 10420 10419 10419 10418 10418 10418 10417 10416 10415 10415 10415 10416 10417 10418 10417 10417 10418 10418 10418 10419 10420 10420 10421 10421 10421 10422 10423 10424 10424 10423 10424 10424 10424 10425 10426 10427 10428 10429 10431 10433 10435 10437 10439 10442 10445 10448 10451 10453 10456 10458 10461 10464 10467 10470 10473 10476 10479 10482 10485 10488 10490 10492 10495 10497 10499 10502 10504 10506 10508 10511 10513 10516 10518 10521
10427 10425 10425 10425 10425 10425 10425 10425 10425 10424 10424 10424 10423 10422 10421 10421 10421 10421 10421 10420 10419 10418 10417 10417 10417 10418 10419 10419 10419 10419 10420 10421 10421 10421 10422 10423 10424 10424 10424 10426 10427 10427 10428 10428 10429 10429 10430 10431 10431 10432 10433 10434 10435 10437 10438 10440 10442 10445 10447 10450 10452 10454 10456 10459 10461 10464 10466 10469 10472 10475 10478 10481 10483 10485 10488 10490 10493 10495 10498 10500 10501 10503 10505 10508 10511 10513 10515